Location: Home
(42.5358°N, 72.7383°W)
Time: 16:06:16
(UTC-05:00)

FALCONSAT 3 - Visible Passes

Search period start: 21 January 2022 00:00
Search period end: 31 January 2022 00:00
Orbit: 431 x 434 km, 35.4° (Epoch: 21 January)

Date Brightness Start Highest point End Pass type
(mag) Time Alt. Az. Time Alt. Az. Time Alt. Az.
21 Jan ? 06:04:19 10° SW 06:07:09 23° S 06:09:58 10° ESE visible
22 Jan ? 05:21:52 20° S 05:22:34 22° S 05:25:19 10° ESE visible
23 Jan ? 04:39:35 15° SE 04:39:35 15° SE 04:40:37 10° ESE visible
23 Jan ? 06:12:55 10° WSW 06:15:48 24° S 06:18:41 10° SE visible
24 Jan ? 05:30:24 23° SSW 05:31:10 25° S 05:34:05 10° SE visible
25 Jan ? 04:48:00 19° SE 04:48:00 19° SE 04:49:26 10° ESE visible
25 Jan ? 06:21:51 10° WSW 06:24:19 18° SSW 06:26:48 10° SSE visible
26 Jan ? 05:38:44 18° SW 05:39:40 20° SSW 05:42:17 10° SE visible
27 Jan ? 04:56:17 18° SSE 04:56:17 18° SSE 04:57:42 10° SE visible
28 Jan ? 05:47:01 11° SW 05:47:57 12° SSW 05:49:17 10° S visible
29 Jan ? 05:04:35 12° S 05:04:35 12° S 05:05:06 10° SSE visible
